STARLINK-1945 (46775 NORAD) Tracking and Keplerian Element Data

This shows tracking and keplerian element data for the satellite.

Feedback or suggestion? Click here.




ElementValue
Catalog46775
NameSTARLINK-1945
Epoch Orbit181
Epoch Day330.91667824
Epoch Year2020
RAAN2.4048
Inclination53.0558
Eccentricity0.0001128
Argument of Perigee70.2065
Mean Anonmoly299.5883
Mean Motion15.46304456
Decay Rate-0.01078039
L11 46775U 20074AN 20330.91667824 -.01078039 00000-0 -23767-1 0 9999
L22 46775 53.0558 2.4048 0001128 70.2065 299.5883 15.46304456 1819

Live tracking and technical data element details for STARLINK-1945 (NORAD 46775). STARLINK-1945 can be tracked NOW for your location showing map with azimuth and elevation plus other details from your city location.

Track the satellite on the map from your city or location and see movement details for azimuth, elevation, latitude, longitude, range, height, and movement on the map or in text.







IsCatalogInMostPopularTable: catalog: 46775, numindb: 7
Update: records affected: 1



GetName: 46775 STARLINK-1945

Hit Count: updated at: Thu, 26 Nov 2020 18:31:33 GMT